Location: Grieser Field
(39.7333°N, 81.7975°W)
Time: 16:46:23
(UTC-05:00)

Daily predictions for brighter satellites

Satellite Brightness Start Highest point End
(mag) Time Altitude Azimuth Time Altitude Azimuth Time Altitude Azimuth
Cosmos 1269 Rocket 4.0 17:23:01 10° NNW 17:28:21 76° ENE 17:33:39 10° SSE
Hubble Space Telescope 3.5 17:32:54 10° SW 17:34:59 14° SSW 17:37:06 10° SSE
Cosmos 1536 2.8 17:32:02 10° N 17:36:07 73° E 17:40:10 10° SSE
Cosmos 2263 Rocket 3.7 17:33:08 10° WSW 17:38:10 33° WNW 17:43:15 10° N
Cosmos 2251 Rocket 4.3 17:34:26 10° N 17:39:07 29° ENE 17:43:43 10° ESE
Meteor 1-11 Rocket 4.3 17:37:41 10° NNW 17:43:09 61° W 17:48:34 10° S
ISS -3.3 17:42:45 10° SW 17:46:02 86° NW 17:49:08 12° NE
Cosmos 1633 3.8 17:45:17 10° NNW 17:48:44 46° W 17:52:09 10° SSW
Cosmos 1461 4.5 17:47:50 10° NW 17:51:30 37° WSW 17:55:10 10° S
MSX 4.0 17:47:09 10° SE 17:52:40 50° ENE 17:58:12 10° N
SL-27 R/B 3.0 17:51:41 10° N 17:55:08 37° ENE 17:58:31 10° SE
Cosmos 1812 3.4 17:52:27 10° SSE 17:55:57 34° E 17:59:29 10° NNE
Cosmos 1346 Rocket 4.4 17:53:52 10° SE 17:56:13 16° E 17:57:08 14° ENE
SJ-12 3.9 17:53:55 10° SSE 17:58:00 87° W 18:02:08 10° NNW
CZ-4 R/B 1.9 17:56:17 10° S 18:00:27 67° WSW 18:04:37 10° NNW
COSMO-SKYMED 1 3.2 17:58:28 10° NNE 18:02:26 34° E 18:06:23 10° SSE
Cosmos 1544 Rocket 3.6 17:59:03 10° N 18:03:28 58° E 18:07:51 10° SSE
Cosmos 158 Rocket 4.1 17:58:25 10° NNW 18:03:49 84° WSW 18:09:04 10° SSE
Cosmos 1844 Rocket 2.7 17:58:42 10° SSW 18:04:17 89° ESE 18:09:57 10° NNE
Cosmos 1975 Rocket 3.7 18:01:23 10° SSW 18:05:38 58° W 18:09:55 10° N
GEOS 3 Rocket 4.0 18:01:56 10° ESE 18:06:42 41° NE 18:11:28 10° NNW
CZ-2C R/B 2.6 18:02:12 10° S 18:07:07 80° WSW 18:12:13 10° NNW
Cosmos 1238 Rocket 2.0 18:08:04 10° S 18:11:01 60° E 18:13:47 11° NNE
MONITOR-E 4.3 18:08:36 10° SSE 18:11:42 54° ENE 18:14:51 10° N
Meteor 1-12 Rocket 4.4 18:06:46 10° N 18:12:25 53° ENE 18:18:08 10° SSE
Cosmos 1844 3.6 18:08:59 10° SSW 18:14:32 80° ESE 18:20:07 10° NNE
CZ-3A R/B 3.9 18:10:29 10° W 18:15:17 51° NNW 18:35:17 13° NE
Cosmos 1975 3.3 18:13:25 10° N 18:17:16 38° ENE 18:21:03 10° SSE
OPS 8737 4.2 18:13:58 10° SSW 18:17:21 65° ESE 18:18:56 26° NE
BREEZE-M DEB (TANK) 3.4 18:16:06 10° WNW 18:17:50 20° NNW 18:18:34 17° N
Cosmos 1536 Rocket 3.6 18:17:44 10° S 18:22:07 62° E 18:26:33 10° NNE
COSMOS 2441 4.3 18:17:52 10° SSE 18:22:43 78° ENE 18:27:36 10° N
SPOT 3 Rocket 4.5 18:20:42 10° S 18:25:44 52° W 18:30:48 10° NNW
SMAP 4.2 18:23:10 10° S 18:27:38 47° W 18:32:09 10° NNW
SL-24 DEB 4.2 18:23:05 10° N 18:27:51 75° E 18:32:33 10° S
YAOGAN 1 3.7 18:24:57 10° S 18:29:05 46° W 18:33:16 10° NNW
Cosmos 2278 Rocket 2.1 18:26:41 10° SSW 18:32:16 68° ESE 18:36:35 18° NNE
SKYMED 3 4.4 18:28:11 10° NNE 18:32:32 76° ESE 18:36:52 10° S
COSMOS 2406 4.5 18:29:23 10° NW 18:34:47 44° WSW 18:40:10 10° S
EP 2 4.3 18:38:52 10° SW 18:41:24 74° WNW 18:41:24 74° WNW
IDEFIX/ARIANE 42P 4.1 18:37:19 10° SSW 18:42:08 38° W 18:46:59 10° NNW
Meteor 1-13 Rocket 4.4 18:37:10 10° SSE 18:42:32 47° E 18:46:05 21° NNE
Cosmos 2366 rocket 4.3 18:39:09 10° NNW 18:45:28 69° W 18:51:42 10° S
Cosmos 1484 Rocket 3.0 18:42:21 10° S 18:46:08 66° W 18:49:51 10° NNW
Okean 1-7 Rocket 4.0 18:42:49 10° SSE 18:46:43 40° ESE 18:46:43 40° ESE
OTV 4 2.4 18:46:28 10° WSW 18:48:58 24° SSW 18:49:39 22° S
CZ-3B DEB 2.7 18:45:35 10° WSW 18:49:30 60° NNW 18:55:17 22° NE
USA 234 4.5 18:45:29 15° NNE 18:49:57 31° NNW 18:55:31 10° W
Cosmos 921 Rocket 4.3 18:46:23 10° SSE 18:48:30 24° SE 18:48:30 24° SE
SKYMED 2 3.8 18:46:15 10° N 18:50:35 67° WNW 18:54:53 10° SSW
Cosmos 1455 Rocket 4.0 18:48:53 10° NNW 18:53:08 48° W 18:57:22 10° SSW
Timation 2 Rocket 4.3 18:50:06 10° NNW 18:56:43 49° ENE 18:59:44 31° ESE
Cosmos 2082 Rocket 2.7 18:53:06 10° N 18:57:45 38° NE 18:57:45 38° NE
Cosmos 1241 Rocket 4.4 18:54:17 10° NNW 19:00:57 78° ENE 19:07:27 10° SE
Cosmos 1833 Rocket 3.6 18:59:09 10° N 19:02:46 31° NNE 19:02:46 31° NNE
BREEZE-M DEB (TANK) 4.4 18:59:47 10° WNW 19:04:46 25° N 19:05:27 24° NNE
NOSS 3-3 (A) 4.1 19:00:07 10° SW 19:06:17 77° NW 19:09:41 31° NNE
NOSS 3-3 (C) 4.0 19:00:13 10° SW 19:06:23 78° NW 19:09:45 31° NNE
Cosmos 375 4.5 19:02:07 10° NNW 19:05:55 62° N 19:05:55 62° N
SL-8 R/B 3.6 19:03:45 10° WSW 19:08:31 78° NNW 19:09:02 68° NNE
Cosmos 1500 3.9 19:08:42 10° NNW 19:12:26 52° W 19:16:09 10° S
Cosmos 2239 Rocket 4.4 19:06:28 10° N 19:12:39 63° E 19:18:44 10° SSE
NOAA 12 4.1 19:09:58 10° SSE 19:15:17 82° WSW 19:20:35 10° NNW
Meteor 1-28 Rocket 3.8 19:15:04 52° NW 19:15:24 54° WNW 19:19:06 10° SSW
METEOR-M 4.0 19:10:43 10° SSE 19:16:03 85° ENE 19:21:25 10° NNW
ATLAS 2AS CENTAUR R/B 3.5 19:08:19 10° NW 19:16:09 59° WSW 19:23:25 10° SSE
Meteor 2-4 Rocket 4.4 19:14:42 10° S 19:18:00 36° SSE 19:18:00 36° SSE
Cosmos 1821 Rocket 3.8 19:14:56 10° N 19:21:02 70° E 19:27:05 10° SSE
ISS -0.5 19:20:39 10° WNW 19:21:49 15° NW 19:21:49 15° NW
Cosmos 1346 Rocket 4.4 19:28:48 10° SW 19:32:20 32° WNW 19:32:45 31° WNW
ATLAS 3B CENTAUR R/B 3.8 19:47:12 10° WSW 19:59:12 36° SSW 20:00:11 34° S
Cosmos 2297 4.5 19:54:17 10° SW 19:59:27 48° WNW 19:59:27 48° WNW
Cosmos 2278 Rocket 4.4 20:13:00 10° W 20:16:53 19° NW 20:18:28 17° NNW
FALCON 9 R/B 3.5 20:14:33 10° W 20:26:28 50° SW 20:26:28 50° SW
Cosmos 2082 Rocket 4.4 20:37:31 10° NW 20:39:41 20° WNW 20:39:41 20° WNW
